SV2BBO-2 Thessaloniki GR current weather conditions

sailwx.info

Wind from 032 at 4 knots gusting 6

Air temperature 6.7° C
Dewpoint -6.3° C

Last reported at 2017-Jan-19 18:38 UTC.
Time now 2017-Jan-19 19:18 UTC

Location: N 40°38' E 022°57'.
View on Google Maps.

See reports from other nearby stations

  
Tides and Currents Weather Stations Pressure Air Temp Water Temp Dewpoint Dewpoint Depression Visibility Wind Speed Wind Dir Waves Ship Positions
date/time (UTC)wind fromknots sea level pressurealtimeterstation pressurevisibilityair tempwater tempwave heightnotes
2017-Jan-19 18:48 050 6 gusting 10 6.7
2017-Jan-19 18:38 032 4 gusting 6 6.7
2017-Jan-19 18:28 032 5 gusting 7 7.2
2017-Jan-19 18:18 046 4 gusting 6 6.7
2017-Jan-19 18:08 045 6 gusting 6 7.2
2017-Jan-19 17:58 044 1 gusting 7 7.2
2017-Jan-19 17:48 041 3 gusting 3 7.2
2017-Jan-19 17:38 350 4 gusting 4 7.2
2017-Jan-19 17:28 357 2 gusting 3 7.8
2017-Jan-19 17:18 357 3 gusting 3 7.8
2017-Jan-19 17:08 025 4 gusting 5 7.8
2017-Jan-19 16:58 343 2 gusting 4 7.8
2017-Jan-19 16:48 004 0 gusting 2 7.8
2017-Jan-19 16:38 009 3 gusting 4 7.8
2017-Jan-19 16:28 003 5 gusting 5 7.8
2017-Jan-19 16:18 138 8.3
2017-Jan-19 16:08 183 2 gusting 3 8.3
2017-Jan-19 15:58 179 3 gusting 4 7.8
2017-Jan-19 15:48 164 3 gusting 3 7.8
2017-Jan-19 15:38 005 7.8
2017-Jan-19 15:28 341 3 gusting 4 7.2
2017-Jan-19 15:18 001 1 gusting 5 7.8
2017-Jan-19 15:08 007 3 gusting 3 7.8
2017-Jan-19 14:58 070 3 gusting 5 7.8
2017-Jan-19 14:48 037 2 gusting 3 7.8
2017-Jan-19 14:38 015 2 gusting 3 8.3
2017-Jan-19 14:28 119 3 gusting 2 7.8
2017-Jan-19 14:18 075 3 gusting 5 7.8
2017-Jan-19 14:08 134 3 gusting 5 7.8
2017-Jan-19 13:58 086 5 gusting 3 7.2
2017-Jan-19 13:48 046 2 gusting 5 7.8
2017-Jan-19 13:38 342 5 gusting 5 7.8
2017-Jan-19 13:28 023 3 gusting 6 8.3
2017-Jan-19 13:18 070 1 gusting 3 8.3
2017-Jan-19 13:08 028 2 gusting 3 7.8
2017-Jan-19 12:58 119 0 gusting 3 7.8
2017-Jan-19 12:48 092 3 gusting 5 8.3
2017-Jan-19 12:38 030 6 gusting 7 8.3
2017-Jan-19 12:28 310 2 gusting 3 8.3
2017-Jan-19 12:18 085 4 gusting 6 7.8
2017-Jan-19 12:08 064 4 gusting 5 8.3
2017-Jan-19 11:58 196 3 gusting 5 8.3
2017-Jan-19 11:48 029 4 gusting 3 7.8
2017-Jan-19 11:38 110 3 gusting 6 7.8
2017-Jan-19 11:28 032 2 gusting 5 7.8
2017-Jan-19 11:18 314 2 gusting 3 7.2
2017-Jan-19 11:08 161 3 gusting 4 7.8
2017-Jan-19 10:58 307 4 gusting 5 7.2
2017-Jan-19 10:48 358 4 gusting 5 7.8
2017-Jan-19 10:38 7.2
2017-Jan-19 10:27 245 2 gusting 4 7.2
2017-Jan-19 10:17 221 2 gusting 5 7.2
2017-Jan-19 10:07 198 3 gusting 3 7.2
2017-Jan-19 09:57 209 2 gusting 3 7.2
2017-Jan-19 09:47 180 2 gusting 3 7.2
2017-Jan-19 09:37 275 2 gusting 3 6.7
2017-Jan-19 09:27 274 0 gusting 3 6.7
2017-Jan-19 09:17 247 3 gusting 5 6.7
2017-Jan-19 09:07 056 3 gusting 4 6.7
2017-Jan-19 08:57 315 2 gusting 3 6.7
2017-Jan-19 08:47 050 3 gusting 4 6.1
2017-Jan-19 08:37 315 3 gusting 4 5.6
2017-Jan-19 08:27 245 3 gusting 4 6.1
2017-Jan-19 08:17 279 3 gusting 3 5.6
2017-Jan-19 08:07 292 3 gusting 4 5.6
2017-Jan-19 07:57 274 3 gusting 6 5.6
2017-Jan-19 07:47 298 2 gusting 3 5.6
2017-Jan-19 07:37 335 3 gusting 4 5.6
2017-Jan-19 07:27 339 3 gusting 5 5.6
2017-Jan-19 07:17 324 4 gusting 4 5.6
2017-Jan-19 07:07 267 3 gusting 3 5.6
2017-Jan-19 06:57 5.0
2017-Jan-19 06:47 352 4 gusting 5 5.0
2017-Jan-19 06:37 328 3 gusting 4 5.0
2017-Jan-19 06:27 005 3 gusting 4 5.6
2017-Jan-19 06:17 332 2 gusting 5 5.0
2017-Jan-19 06:07 306 3 gusting 4 5.0
2017-Jan-19 05:57 5.0
2017-Jan-19 05:47 003 6 gusting 6 4.4
2017-Jan-19 05:37 018 7 gusting 7 4.4
2017-Jan-19 05:27 4.4
2017-Jan-19 05:17 353 4 gusting 6 5.0
2017-Jan-19 05:07 352 5 gusting 4 5.0
2017-Jan-19 04:57 329 4 gusting 4 5.0
2017-Jan-19 04:47 305 4 gusting 6 5.0
2017-Jan-19 04:37 312 3 gusting 6 5.0
2017-Jan-19 04:27 289 4 gusting 5 5.0
2017-Jan-19 04:17 305 4 gusting 6 5.0
2017-Jan-19 04:07 318 3 gusting 6 5.0
2017-Jan-19 03:57 344 5 gusting 5 5.0
2017-Jan-19 03:47 331 5 gusting 5 5.0
2017-Jan-19 03:37 343 5 gusting 5 5.6
2017-Jan-19 03:27 356 6 gusting 9 5.6
2017-Jan-19 03:17 011 5 gusting 6 5.6
2017-Jan-19 03:07 033 3 gusting 5 5.6
2017-Jan-19 02:57 052 5 gusting 11 5.6
2017-Jan-19 02:47 356 6 gusting 6 5.6
2017-Jan-19 02:38 037 6 gusting 9 5.6
2017-Jan-19 02:28 352 5 gusting 6 5.6
2017-Jan-19 02:18 007 3 gusting 5 5.6
2017-Jan-19 02:08 312 2 gusting 4 5.6
2017-Jan-19 01:58 306 5.6
2017-Jan-19 01:48 323 0 gusting 5 5.0
2017-Jan-19 01:38 267 2 gusting 3 5.0
2017-Jan-19 01:28 350 4 gusting 3 5.0
2017-Jan-19 01:18 037 5.6
2017-Jan-19 01:08 072 3 gusting 3 5.6
2017-Jan-19 00:58 035 3 gusting 6 6.1
2017-Jan-19 00:48 105 4 gusting 6 6.1
2017-Jan-19 00:38 131 5 gusting 5 6.1
2017-Jan-19 00:28 029 5 gusting 6 6.1
2017-Jan-19 00:18 077 5 gusting 8 6.1
2017-Jan-19 00:08 103 3 gusting 11 6.1
2017-Jan-18 23:58 185 5 gusting 12 6.7
2017-Jan-18 23:48 143 3 gusting 6 6.7
2017-Jan-18 23:38 152 3 gusting 5 6.7
2017-Jan-18 23:28 305 3 gusting 5 6.7
2017-Jan-18 23:18 158 6.7
2017-Jan-18 23:08 081 2 gusting 2 6.7
2017-Jan-18 22:58 156 5 gusting 7 6.7
2017-Jan-18 22:48 162 6 gusting 6 6.7
2017-Jan-18 22:38 141 6 gusting 13 7.2
2017-Jan-18 22:28 111 8 gusting 15 7.2
2017-Jan-18 22:18 195 5 gusting 9 7.2
2017-Jan-18 22:08 061 6 gusting 7 6.7
2017-Jan-18 21:58 122 5 gusting 11 7.2
2017-Jan-18 21:48 157 6 gusting 6 7.2
2017-Jan-18 21:38 075 5 gusting 5 7.2
2017-Jan-18 21:28 152 11 gusting 14 7.2
2017-Jan-18 21:18 106 4 gusting 4 7.2
2017-Jan-18 21:08 042 2 gusting 3 7.2
2017-Jan-18 20:58 189 2 gusting 4 7.2
2017-Jan-18 20:48 127 4 gusting 6 7.2
2017-Jan-18 20:38 158 3 gusting 10 7.8
2017-Jan-18 20:28 074 4 gusting 4 7.8
2017-Jan-18 20:18 077 5 gusting 6 7.2
2017-Jan-18 20:08 042 4 gusting 3 7.8
2017-Jan-18 19:58 160 3 gusting 8 7.2
2017-Jan-18 19:48 172 4 gusting 5 7.2
2017-Jan-18 19:38 090 4 gusting 7 7.8
2017-Jan-18 19:28 143 4 gusting 7 7.8
2017-Jan-18 19:18 130 4 gusting 5 7.8
2017-Jan-18 19:08 133 3 gusting 6 7.8
2017-Jan-18 18:58 098 6 gusting 9 7.8
2017-Jan-18 18:48 182 6 gusting 7 7.8
2017-Jan-18 18:38 083 5 gusting 7 7.8
2017-Jan-18 18:28 132 4 gusting 5 7.8
2017-Jan-18 18:18 048 5 gusting 4 7.8
2017-Jan-18 18:08 107 6 gusting 8 7.8
2017-Jan-18 17:58 159 6 gusting 6 7.8
2017-Jan-18 17:48 083 4 gusting 13 7.8
2017-Jan-18 17:38 093 6 gusting 8 7.8
2017-Jan-18 17:28 139 6 gusting 12 7.8
2017-Jan-18 17:18 084 9 gusting 10 7.8
2017-Jan-18 17:08 122 3 gusting 5 7.8
2017-Jan-18 16:58 108 5 gusting 7 7.8
2017-Jan-18 16:48 043 6 gusting 16 7.8
2017-Jan-18 16:38 081 5 gusting 8 7.8
2017-Jan-18 16:28 089 6 gusting 12 7.8
2017-Jan-18 16:18 075 5 gusting 6 8.3
2017-Jan-18 16:08 146 4 gusting 3 8.3
2017-Jan-18 15:58 151 3 gusting 7 8.3
2017-Jan-18 15:48 159 5 gusting 7 8.3
2017-Jan-18 15:38 102 4 gusting 12 8.3
2017-Jan-18 15:28 057 3 gusting 5 8.3
2017-Jan-18 15:18 107 4 gusting 5 7.8
2017-Jan-18 15:08 116 6 gusting 7 7.8
2017-Jan-18 14:58 148 4 gusting 3 8.3
2017-Jan-18 14:48 170 4 gusting 6 8.3
2017-Jan-18 14:38 077 3 gusting 5 8.3
2017-Jan-18 14:28 135 5 gusting 7 8.3
2017-Jan-18 14:18 118 3 gusting 4 8.3
2017-Jan-18 14:08 144 3 gusting 5 8.9
2017-Jan-18 13:58 176 5 gusting 4 8.3
2017-Jan-18 13:48 163 4 gusting 4 8.3
2017-Jan-18 13:38 121 5 gusting 7 8.3
2017-Jan-18 13:28 087 4 gusting 4 8.3
2017-Jan-18 13:18 141 4 gusting 6 8.9
2017-Jan-18 13:08 152 3 gusting 6 8.9
2017-Jan-18 12:58 069 2 gusting 4 8.9
2017-Jan-18 12:48 145 4 gusting 6 8.9
2017-Jan-18 12:38 135 4 gusting 5 8.9
2017-Jan-18 12:28 135 6 gusting 8 8.3
2017-Jan-18 12:18 112 6 gusting 8 8.3
2017-Jan-18 12:08 100 9 gusting 19 8.3
2017-Jan-18 11:58 107 5 gusting 13 8.3
2017-Jan-18 11:48 093 6 gusting 6 8.3
2017-Jan-18 11:38 082 7 gusting 7 7.8
2017-Jan-18 11:28 084 6 gusting 7 8.3
2017-Jan-18 11:18 121 6 gusting 8 8.3
2017-Jan-18 11:08 079 5 gusting 8 8.3
2017-Jan-18 10:58 078 6 gusting 10 8.3
2017-Jan-18 10:48 088 6 gusting 9 8.3
2017-Jan-18 10:38 076 4 gusting 11 8.3
2017-Jan-18 10:28 047 12 gusting 17 8.3
2017-Jan-18 10:18 063 8 gusting 15 8.3
2017-Jan-18 10:08 052 7 gusting 18 8.3
2017-Jan-18 09:58 089 8 gusting 13 8.3
2017-Jan-18 09:48 095 11 gusting 15 8.3
2017-Jan-18 09:38 044 8 gusting 11 8.3
2017-Jan-18 09:28 025 10 gusting 13 8.3
2017-Jan-18 09:18 056 8 gusting 11 8.3
2017-Jan-18 09:08 047 6 gusting 17 8.3
2017-Jan-18 08:58 090 8 gusting 11 8.3
2017-Jan-18 08:48 091 6 gusting 10 8.3
2017-Jan-18 08:38 146 6 gusting 5 8.3
2017-Jan-18 08:28 075 6 gusting 13 8.3
2017-Jan-18 08:18 055 9 gusting 19 8.3
2017-Jan-18 08:08 079 6 gusting 6 8.3
2017-Jan-18 07:58 032 4 gusting 4 8.3
2017-Jan-18 07:48 158 6 gusting 6 8.3
2017-Jan-18 07:38 071 8 gusting 8 8.3
2017-Jan-18 07:28 156 5 gusting 12 8.3
2017-Jan-18 07:18 095 8 gusting 12 8.3
2017-Jan-18 07:08 104 7 gusting 10 8.3
2017-Jan-18 06:58 055 7 gusting 18 8.3
2017-Jan-18 06:48 054 9 gusting 17 8.3
2017-Jan-18 06:38 088 6 gusting 8 8.3
2017-Jan-18 06:28 080 3 gusting 7 8.3
2017-Jan-18 06:18 143 3 gusting 3 8.3
2017-Jan-18 06:08 200 4 gusting 5 8.3
2017-Jan-18 05:58 106 3 gusting 3 8.3
2017-Jan-18 05:48 166 3 gusting 5 8.3
2017-Jan-18 05:38 124 3 gusting 8 8.3
2017-Jan-18 05:28 152 0 gusting 5 8.3
2017-Jan-18 05:18 111 3 gusting 4 8.3
2017-Jan-18 05:08 084 6 gusting 10 8.3
2017-Jan-18 04:58 061 3 gusting 6 8.3
2017-Jan-18 04:48 054 3 gusting 5 8.3
2017-Jan-18 04:38 079 6 gusting 6 8.3
2017-Jan-18 04:28 033 4 gusting 8 8.3
2017-Jan-18 04:18 112 4 gusting 8 7.8
2017-Jan-18 04:08 079 6 gusting 12 7.8
2017-Jan-18 03:58 122 3 gusting 8 7.8
2017-Jan-18 03:48 064 6 gusting 15 7.8
2017-Jan-18 03:38 043 8 gusting 10 7.8
2017-Jan-18 03:28 065 2 gusting 4 8.3
2017-Jan-18 03:18 105 3 gusting 6 8.3
2017-Jan-18 03:08 127 3 gusting 5 8.3
2017-Jan-18 02:58 359 2 gusting 3 8.3
2017-Jan-18 02:48 107 2 gusting 3 8.3
2017-Jan-18 02:37 162 3 gusting 5 8.3
2017-Jan-18 02:27 083 3 gusting 5 8.3
2017-Jan-18 02:17 103 3 gusting 6 8.3
2017-Jan-18 02:07 295 2 gusting 3 8.3
2017-Jan-18 01:57 209 2 gusting 3 8.3
2017-Jan-18 01:47 209 0 gusting 2 8.3
2017-Jan-18 01:37 194 7.8
2017-Jan-18 01:27 255 2 gusting 2 7.8
2017-Jan-18 01:17 273 2 gusting 3 7.8
2017-Jan-18 01:07 290 3 gusting 5 7.8
2017-Jan-18 00:57 254 2 gusting 4 7.8
2017-Jan-18 00:47 203 3 gusting 4 7.8
2017-Jan-18 00:37 280 3 gusting 7 7.8
2017-Jan-18 00:27 310 2 gusting 5 7.8
2017-Jan-18 00:17 338 8.3
2017-Jan-18 00:07 145 2 gusting 3 8.3
2017-Jan-17 23:57 310 4 gusting 3 7.8
2017-Jan-17 23:47 050 4 gusting 2 7.8
2017-Jan-17 23:37 069 0 gusting 4 7.8
2017-Jan-17 23:27 034 2 gusting 5 7.8
2017-Jan-17 23:17 025 2 gusting 3 8.3
2017-Jan-17 23:07 002 5 gusting 5 8.3
2017-Jan-17 22:57 027 3 gusting 3 8.3
2017-Jan-17 22:47 269 3 gusting 5 8.3
2017-Jan-17 22:37 080 8.3
2017-Jan-17 22:27 167 1 gusting 4 8.3
2017-Jan-17 22:17 043 3 gusting 4 8.3
2017-Jan-17 22:07 152 3 gusting 3 8.9
2017-Jan-17 21:57 212 2 gusting 3 8.9
2017-Jan-17 21:47 273 4 gusting 5 8.9
2017-Jan-17 21:37 010 3 gusting 3 8.9
2017-Jan-17 21:27 075 8.9
2017-Jan-17 21:17 075 2 gusting 3 8.9
2017-Jan-17 21:07 113 0 gusting 2 8.9
2017-Jan-17 20:57 122 0 gusting 3 8.9
2017-Jan-17 20:47 043 2 gusting 2 8.9
2017-Jan-17 20:37 077 4 gusting 4 8.9
2017-Jan-17 20:27 101 2 gusting 5 8.9
2017-Jan-17 20:17 153 4 gusting 4 9.4
2017-Jan-17 20:07 100 4 gusting 5 9.4
2017-Jan-17 19:57 140 5 gusting 5 8.9
2017-Jan-17 19:47 058 2 gusting 5 9.4
2017-Jan-17 19:37 115 2 gusting 3 9.4
2017-Jan-17 19:27 110 4 gusting 5 9.4
2017-Jan-17 19:17 168 3 gusting 6 9.4
2017-Jan-17 19:07 189 3 gusting 5 9.4